STARLINK-11183, 60189

Orbit data source: Space-Track

STARLINK-11183, 60189 is a payload satellite owned by SpaceX/Seattle (US) in LEO that was launched on Wed, 03 Jul 2024 UTC via an FALCON 9 launch vehicle from the Air Force Eastern Test Range (AFETR). Payload-class satellites include a variety of spacecraft equipped with specific instruments for various scientific and technological missions. These include communications satellites like Starlink; space stations such as the ISS; scientific satellites like the Hubble; Earth observation satellites from companies like Planet Labs, Umbra, and HawkEye 360; GPS; miniature CubeSats for education and research; and military/defense satellites.

Loading next visibility...
Identifier
60189, 2024-124G
Orbit
LEO
Country
Flag of USUS
Related business
Manufacturer
SpaceX/Seattle
Mission
Operational Commercial Communications
Bus & Motor
STARLINK V2MD, Unknown motor
Mass
960 kg wet, ~910 kg dry
Launch date (UTC)
2024-07-03 (2 years ago)
Launch vehicle
FALCON 9
Launch site
Air Force Eastern Test Range (AFETR)
Object type
Payload
Rocket body
Debris
Shape & HBR
Box + 2 Pan, 18.1 m
Radar Cross Section
36.964 m², Large (>1 m²)

Expand to show TLE details & history
Last TLE update: 1 day ago

TLE from 1 day ago
0 STARLINK-11183
1 60189U 24124G   26034.20538232  .00022976  00000-0  19413-3 0  9994
2 60189  53.1578 331.5628 0001086  86.4491 273.6651 15.69689884 91116
Epoch: 2026-02-03T04:55Z
TLE epoch observation values (Epoch: 2026-02-03T04:55:45.032Z)
Latitude
-0.00003°
Longitude
124.23549°
Altitude
360.652 km
Speed
7.694 km/s
True Right ascension
22h 06m 15s
True Declination
0° 00' 00"
Sunlit
Object was in daylight at epoch
Visualization orbit readout
Latitude
Unknown
Longitude
Unknown
Altitude
Unknown
Speed
Unknown
Apparent Right ascension
Unknown
Apparent Declination
Unknown
Sunlit
N/A
Visualization observer readout
Local Sidereal Time
07:27:43
Azimuth
Unknown
Elevation
Unknown
Doppler factor
Unknown
Orbital elements
Apogee altitude
360.777 km
Perigee altitude
359.314 km
Semi-major axis
6,738.182 km
Eccentricity
0.00011
Inclination
53.1578°
RAAN
331.5628°
Arg. of periapsis
86.4491°
True anomaly
273.65268°
Mean anomaly
273.6651°
Eccentric anomaly
273.65889°
Mean motion
3.924 °/min
Orbital period
91.74 mins
BSTAR
0.00019413
Loading maneuver chart data...
Computing Atmospheric mass density...
Loading historical data...
Loading historical data...
Loading historical data...
Loading historical data...
Loading historical data...
Loading historical data...
Loading historical data...

Documentation

Showing up to 5 results
|